"Period start","avg(HW err(1)/warn(2) (#))","avg(Visibility (m))","avg(Weather code (#))","avg(Precip intensity (mm/h))","min(HW err(1)/warn(2) (#))","max(HW err(1)/warn(2) (#))","std(HW err(1)/warn(2) (#))","med(HW err(1)/warn(2) (#))","min(Visibility (m))","max(Visibility (m))","std(Visibility (m))","med(Visibility (m))","min(Weather code (#))","max(Weather code (#))","std(Weather code (#))","med(Weather code (#))","min(Precip intensity (mm/h))","max(Precip intensity (mm/h))","std(Precip intensity (mm/h))","med(Precip intensity (mm/h))"
2014-07-03 00:00:00,2,14641,7,0.00,2,2,0,2,12799,17755,1403,14619,0,10,5,10,0.00,0.00,0.00,0.00
2014-07-03 00:10:00,2,13070,0,0.00,2,2,0,2,8266,26641,5335,10980,0,0,0,0,0.00,0.00,0.00,0.00
2014-07-03 00:20:00,2,30886,0,0.00,2,2,0,2,25657,38636,4020,29366,0,0,0,0,0.00,0.00,0.00,0.00
2014-07-03 00:30:00,2,41359,0,0.00,2,2,0,2,27382,50000,8384,44320,0,0,0,0,0.00,0.00,0.00,0.00
2014-07-03 00:40:00,2,25703,0,0.00,2,2,0,2,9988,41453,10376,24821,0,0,0,0,0.00,0.00,0.00,0.00
2014-07-03 00:50:00,2,30250,0,0.00,2,2,0,2,12273,40610,8747,33822,0,0,0,0,0.00,0.00,0.00,0.00
2014-07-03 01:00:00,2,17495,0,0.00,2,2,0,2,6454,28748,7723,16850,0,0,0,0,0.00,0.00,0.00,0.00
2014-07-03 01:10:00,2,4917,8,0.00,2,2,0,2,4380,5379,344,4930,0,10,4,10,0.00,0.00,0.00,0.00
2014-07-03 01:20:00,2,1358,15,0.00,2,2,0,2,418,4741,1323,614,10,34,10,10,0.00,0.00,0.00,0.00
2014-07-03 01:30:00,2,884,34,0.00,2,2,0,2,561,1771,380,686,34,34,0,34,0.00,0.00,0.00,0.00
2014-07-03 01:40:00,2,3429,27,0.00,2,2,0,2,2618,4221,639,3522,20,34,7,27,0.00,0.00,0.00,0.00
2014-07-03 01:50:00,2,2550,20,0.00,2,2,0,2,1736,2758,293,2647,20,20,0,20,0.00,0.00,0.00,0.00
2014-07-03 02:00:00,2,10666,20,0.00,2,2,0,2,2404,37405,10907,5270,20,20,0,20,0.00,0.00,0.00,0.00
2014-07-03 02:10:00,2,45043,20,0.00,2,2,0,2,32863,50000,6272,48462,20,20,0,20,0.00,0.00,0.00,0.00
2014-07-03 02:20:00,2,39953,20,0.00,2,2,0,2,22134,50000,9656,43494,20,20,0,20,0.00,0.00,0.00,0.00
2014-07-03 02:30:00,2,45828,20,0.00,2,2,0,2,34672,50000,4560,47816,20,20,0,20,0.00,0.00,0.00,0.00
2014-07-03 02:40:00,2,43776,10,0.00,2,2,0,2,12534,50000,11339,49072,0,20,10,10,0.00,0.00,0.00,0.00
2014-07-03 02:50:00,2,48627,0,0.00,2,2,0,2,42318,50000,2375,50000,0,0,0,0,0.00,0.00,0.00,0.00
2014-07-03 03:00:00,2,46517,0,0.00,2,2,0,2,40979,50000,3258,46328,0,0,0,0,0.00,0.00,0.00,0.00
2014-07-03 03:10:00,2,48236,0,0.00,2,2,0,2,43027,50000,2498,49427,0,0,0,0,0.00,0.00,0.00,0.00
2014-07-03 03:20:00,2,49914,0,0.00,2,2,0,2,49488,50000,175,50000,0,0,0,0,0.00,0.00,0.00,0.00
2014-07-03 03:30:00,2,49901,0,0.00,2,2,0,2,49008,50000,298,50000,0,0,0,0,0.00,0.00,0.00,0.00
2014-07-03 03:40:00,2,49638,0,0.00,2,2,0,2,47331,50000,819,50000,0,0,0,0,0.00,0.00,0.00,0.00
2014-07-03 03:50:00,2,49980,0,0.00,2,2,0,2,49802,50000,59,50000,0,0,0,0,0.00,0.00,0.00,0.00
2014-07-03 04:00:00,2,48532,0,0.00,2,2,0,2,43279,50000,2418,50000,0,0,0,0,0.00,0.00,0.00,0.00
2014-07-03 04:10:00,2,47484,0,0.00,2,2,0,2,40746,50000,3022,48953,0,0,0,0,0.00,0.00,0.00,0.00
2014-07-03 04:20:00,2,45490,0,0.00,2,2,0,2,39344,50000,3106,46422,0,0,0,0,0.00,0.00,0.00,0.00
2014-07-03 04:30:00,2,48144,0,0.00,2,2,0,2,44180,50000,2007,48560,0,0,0,0,0.00,0.00,0.00,0.00
2014-07-03 04:40:00,2,49086,0,0.00,2,2,0,2,45075,50000,1836,50000,0,0,0,0,0.00,0.00,0.00,0.00
2014-07-03 04:50:00,2,49436,0,0.00,2,2,0,2,45954,50000,1246,50000,0,0,0,0,0.00,0.00,0.00,0.00
2014-07-03 05:00:00,2,49699,0,0.00,2,2,0,2,48698,50000,477,50000,0,0,0,0,0.00,0.00,0.00,0.00
2014-07-03 05:10:00,2,49753,0,0.00,2,2,0,2,47833,50000,646,50000,0,0,0,0,0.00,0.00,0.00,0.00
2014-07-03 05:20:00,2,49062,0,0.00,2,2,0,2,47026,50000,1070,49571,0,0,0,0,0.00,0.00,0.00,0.00
2014-07-03 05:30:00,2,49357,0,0.00,2,2,0,2,43570,50000,1929,50000,0,0,0,0,0.00,0.00,0.00,0.00
2014-07-03 05:40:00,2,49849,0,0.00,2,2,0,2,48490,50000,453,50000,0,0,0,0,0.00,0.00,0.00,0.00
2014-07-03 05:50:00,2,50000,0,0.00,2,2,0,2,50000,50000,0,50000,0,0,0,0,0.00,0.00,0.00,0.00
2014-07-03 06:00:00,2,15758,0,0.00,2,2,0,2,5823,27834,6446,14510,0,0,0,0,0.00,0.00,0.00,0.00
2014-07-03 06:10:00,2,4038,8,0.00,2,2,0,2,2933,5626,881,3774,0,10,4,10,0.00,0.00,0.00,0.00
2014-07-03 06:20:00,2,17093,10,0.00,2,2,0,2,6436,35214,9980,11757,10,10,0,10,0.00,0.00,0.00,0.00
2014-07-03 06:30:00,2,7684,6,0.00,2,2,0,2,4658,10997,1701,7686,0,10,5,10,0.00,0.00,0.00,0.00
2014-07-03 06:40:00,2,6090,10,0.00,2,2,0,2,4162,8318,1485,6124,10,10,0,10,0.00,0.00,0.00,0.00
2014-07-03 06:50:00,2,3848,10,0.00,2,2,0,2,2747,5717,904,3730,10,10,0,10,0.00,0.00,0.00,0.00
2014-07-03 07:00:00,2,6420,10,0.00,2,2,0,2,4527,8299,1080,6118,10,10,0,10,0.00,0.00,0.00,0.00
2014-07-03 07:10:00,2,8058,10,0.00,2,2,0,2,4779,12174,2387,7594,10,10,0,10,0.00,0.00,0.00,0.00
2014-07-03 07:20:00,1,12382,10,0.00,0,2,1,2,6720,19425,3752,12948,10,10,0,10,0.00,0.00,0.00,0.00
2014-07-03 07:30:00,0,23678,0,0.00,0,0,0,0,7129,41498,12526,20812,0,0,0,0,0.00,0.00,0.00,0.00
2014-07-03 07:40:00,0,7148,6,0.00,0,0,0,0,5043,9608,1556,7122,0,10,5,10,0.00,0.00,0.00,0.00
2014-07-03 07:50:00,1,6196,10,0.00,0,2,1,2,4764,6856,601,6270,10,10,0,10,0.00,0.00,0.00,0.00
2014-07-03 08:00:00,2,10821,10,0.00,0,2,1,2,7773,16148,2961,9536,10,10,0,10,0.00,0.00,0.00,0.00
2014-07-03 08:10:00,2,19485,9,0.00,0,2,1,2,9083,36848,9973,18469,0,10,3,10,0.00,0.00,0.00,0.00
2014-07-03 08:20:00,0,26568,0,0.00,0,2,1,0,12165,48039,14073,20507,0,0,0,0,0.00,0.00,0.00,0.00
2014-07-03 08:30:00,0,16619,0,0.00,0,0,0,0,7671,31477,7735,13996,0,0,0,0,0.00,0.00,0.00,0.00
2014-07-03 08:40:00,0,14444,0,0.00,0,0,0,0,10403,20201,3702,13352,0,0,0,0,0.00,0.00,0.00,0.00
2014-07-03 08:50:00,0,13138,0,0.00,0,2,1,0,5248,25396,6763,11148,0,0,0,0,0.00,0.00,0.00,0.00
2014-07-03 09:00:00,2,7751,8,0.00,0,2,1,2,5082,12329,1884,7662,0,10,4,10,0.00,0.00,0.00,0.00
2014-07-03 09:10:00,2,4675,10,0.00,2,2,0,2,3472,6567,997,4258,10,10,0,10,0.00,0.00,0.00,0.00
2014-07-03 09:20:00,2,3698,10,0.00,2,2,0,2,2943,5156,691,3477,10,10,0,10,0.00,0.00,0.00,0.00
2014-07-03 09:30:00,2,4475,10,0.00,2,2,0,2,3292,5936,788,4255,10,10,0,10,0.00,0.00,0.00,0.00
2014-07-03 09:40:00,2,4809,10,0.00,2,2,0,2,3918,6022,684,4806,10,10,0,10,0.00,0.00,0.00,0.00
2014-07-03 09:50:00,2,5888,10,0.00,2,2,0,2,4171,7169,1001,5902,10,10,0,10,0.00,0.00,0.00,0.00
2014-07-03 10:00:00,2,7140,10,0.00,2,2,0,2,5195,9326,1237,7262,10,10,0,10,0.00,0.00,0.00,0.00
2014-07-03 10:10:00,2,8402,10,0.00,2,2,0,2,6253,15074,2498,7480,10,10,0,10,0.00,0.00,0.00,0.00
2014-07-03 10:20:00,2,5086,10,0.00,2,2,0,2,3787,8932,1575,4236,10,10,0,10,0.00,0.00,0.00,0.00
2014-07-03 10:30:00,2,5334,10,0.00,2,2,0,2,4478,6516,751,5016,10,10,0,10,0.00,0.00,0.00,0.00
2014-07-03 10:40:00,2,4505,32,0.14,2,2,0,2,3563,5221,525,4633,10,51,19,40,0.00,0.50,0.16,0.07
2014-07-03 10:50:00,2,5152,51,0.23,2,2,0,2,4272,6587,749,4908,51,51,0,51,0.10,0.40,0.10,0.17
2014-07-03 11:00:00,2,5738,14,0.01,2,2,0,2,4693,6765,736,5608,10,51,12,10,0.00,0.05,0.02,0.00
2014-07-03 11:10:00,2,6202,10,0.00,2,2,0,2,5565,7345,458,6220,10,10,0,10,0.00,0.00,0.00,0.00
2014-07-03 11:20:00,2,6305,10,0.00,2,2,0,2,5032,8042,920,6113,10,10,0,10,0.00,0.00,0.00,0.00
2014-07-03 11:30:00,2,10388,10,0.00,2,2,0,2,5773,17368,3558,9158,10,10,0,10,0.00,0.00,0.00,0.00
2014-07-03 11:40:00,2,7807,10,0.00,2,2,0,2,6917,9038,693,7599,10,10,0,10,0.00,0.00,0.00,0.00
2014-07-03 11:50:00,2,8770,10,0.00,2,2,0,2,7101,11524,1561,8326,10,10,0,10,0.00,0.00,0.00,0.00
2014-07-03 12:00:00,2,8785,10,0.00,2,2,0,2,6083,11001,1857,9137,10,10,0,10,0.00,0.00,0.00,0.00
2014-07-03 12:10:00,2,9701,10,0.00,2,2,0,2,6518,12622,1763,9733,10,10,0,10,0.00,0.00,0.00,0.00
2014-07-03 12:20:00,2,12370,5,0.00,2,2,0,2,8369,15169,2251,13100,0,10,5,5,0.00,0.00,0.00,0.00
2014-07-03 12:30:00,2,10558,0,0.00,2,2,0,2,8237,13724,1838,10547,0,0,0,0,0.00,0.00,0.00,0.00
2014-07-03 12:40:00,2,12515,0,0.00,2,2,0,2,9605,18258,2323,12052,0,0,0,0,0.00,0.00,0.00,0.00
2014-07-03 12:50:00,2,26250,0,0.00,2,2,0,2,13988,45282,9739,21664,0,0,0,0,0.00,0.00,0.00,0.00
2014-07-03 13:00:00,2,47435,0,0.00,2,2,0,2,42060,50000,2690,48104,0,0,0,0,0.00,0.00,0.00,0.00
2014-07-03 13:10:00,2,31408,0,0.00,2,2,0,2,23890,40316,5616,30656,0,0,0,0,0.00,0.00,0.00,0.00
2014-07-03 13:20:00,2,38277,0,0.00,2,2,0,2,20597,49680,10595,42332,0,0,0,0,0.00,0.00,0.00,0.00
2014-07-03 13:30:00,2,47186,0,0.00,2,2,0,2,39531,50000,4102,49696,0,0,0,0,0.00,0.00,0.00,0.00
2014-07-03 13:40:00,2,43590,0,0.00,0,2,1,2,28096,50000,8159,50000,0,0,0,0,0.00,0.00,0.00,0.00
2014-07-03 13:50:00,2,48688,0,0.00,2,2,0,2,38907,50000,3316,50000,0,0,0,0,0.00,0.00,0.00,0.00
2014-07-03 14:00:00,2,37977,0,0.00,2,2,0,2,19109,50000,10913,37994,0,0,0,0,0.00,0.00,0.00,0.00
2014-07-03 14:10:00,2,48748,0,0.00,2,2,0,2,43756,50000,2086,49982,0,0,0,0,0.00,0.00,0.00,0.00
2014-07-03 14:20:00,2,50000,0,0.00,2,2,0,2,50000,50000,0,50000,0,0,0,0,0.00,0.00,0.00,0.00
2014-07-03 14:30:00,2,49317,0,0.00,2,2,0,2,43174,50000,2048,50000,0,0,0,0,0.00,0.00,0.00,0.00
2014-07-03 14:40:00,2,43264,0,0.00,2,2,0,2,31975,50000,7235,46832,0,0,0,0,0.00,0.00,0.00,0.00
2014-07-03 14:50:00,2,35936,0,0.00,2,2,0,2,20967,50000,10504,36464,0,0,0,0,0.00,0.00,0.00,0.00
2014-07-03 15:00:00,2,38405,0,0.00,2,2,0,2,23060,50000,7091,40232,0,0,0,0,0.00,0.00,0.00,0.00
2014-07-03 15:10:00,2,20157,0,0.00,2,2,0,2,9840,37749,9116,19305,0,0,0,0,0.00,0.00,0.00,0.00
2014-07-03 15:20:00,2,19818,0,0.00,2,2,0,2,5749,36760,9493,16020,0,0,0,0,0.00,0.00,0.00,0.00
2014-07-03 15:30:00,2,7812,6,0.00,2,2,0,2,4221,15480,3205,7130,0,10,5,10,0.00,0.00,0.00,0.00
2014-07-03 15:40:00,2,3821,24,0.17,2,2,0,2,2482,5533,962,3614,10,52,18,10,0.00,1.10,0.36,0.00
2014-07-03 15:50:00,2,2883,57,0.54,2,2,0,2,2089,3655,474,2802,52,61,4,61,0.15,1.85,0.53,0.30
2014-07-03 16:00:00,2,3392,55,0.25,2,2,0,2,2526,4457,539,3328,41,61,9,61,0.05,0.40,0.11,0.25
2014-07-03 16:10:00,2,10550,30,0.07,2,2,0,2,4293,17123,4961,11481,10,51,20,30,0.00,0.25,0.09,0.00
2014-07-03 16:20:00,2,44266,4,0.00,0,2,1,2,24553,50000,8562,50000,0,10,5,0,0.00,0.00,0.00,0.00
2014-07-03 16:30:00,0,44554,0,0.00,0,2,1,0,30650,50000,7251,50000,0,0,0,0,0.00,0.00,0.00,0.00
2014-07-03 16:40:00,1,46614,0,0.00,0,2,1,0,26996,50000,7272,50000,0,0,0,0,0.00,0.00,0.00,0.00
2014-07-03 16:50:00,2,32269,0,0.00,2,2,0,2,20370,46822,8232,32688,0,0,0,0,0.00,0.00,0.00,0.00
2014-07-03 17:00:00,2,38933,0,0.00,2,2,0,2,31356,46953,4444,39801,0,0,0,0,0.00,0.00,0.00,0.00
2014-07-03 17:10:00,2,34025,0,0.00,0,2,1,2,22192,48768,7859,31974,0,0,0,0,0.00,0.00,0.00,0.00
2014-07-03 17:20:00,2,22174,0,0.00,0,2,1,2,16759,29117,4165,21430,0,0,0,0,0.00,0.00,0.00,0.00
2014-07-03 17:30:00,2,12829,0,0.00,2,2,0,2,8765,20911,3976,11299,0,0,0,0,0.00,0.00,0.00,0.00
2014-07-03 17:40:00,2,8158,5,0.00,2,2,0,2,7440,9236,552,8173,0,10,5,5,0.00,0.00,0.00,0.00
2014-07-03 17:50:00,2,7588,10,0.00,2,2,0,2,5297,10190,1472,7256,10,10,0,10,0.00,0.00,0.00,0.00
2014-07-03 18:00:00,2,7794,10,0.00,2,2,0,2,5873,11031,1747,7183,10,10,0,10,0.00,0.00,0.00,0.00
2014-07-03 18:10:00,2,7227,10,0.00,2,2,0,2,5237,9252,1089,6865,10,10,0,10,0.00,0.00,0.00,0.00
2014-07-03 18:20:00,2,9869,10,0.00,2,2,0,2,8439,11261,906,10187,10,10,0,10,0.00,0.00,0.00,0.00
2014-07-03 18:30:00,2,9260,10,0.00,2,2,0,2,6989,11022,1447,9666,10,10,0,10,0.00,0.00,0.00,0.00
2014-07-03 18:40:00,2,10044,10,0.00,2,2,0,2,9265,10828,497,10118,10,10,0,10,0.00,0.00,0.00,0.00
2014-07-03 18:50:00,2,11544,8,0.00,2,2,0,2,10208,12810,812,11250,0,10,4,10,0.00,0.00,0.00,0.00
2014-07-03 19:00:00,2,12176,0,0.00,2,2,0,2,10241,15303,1317,12023,0,0,0,0,0.00,0.00,0.00,0.00
2014-07-03 19:10:00,2,10998,0,0.00,2,2,0,2,8890,13902,1566,11101,0,0,0,0,0.00,0.00,0.00,0.00
2014-07-03 19:20:00,2,10605,0,0.00,2,2,0,2,9694,12430,741,10445,0,0,0,0,0.00,0.00,0.00,0.00
2014-07-03 19:30:00,2,19458,0,0.00,2,2,0,2,12146,28587,5580,17525,0,0,0,0,0.00,0.00,0.00,0.00
2014-07-03 19:40:00,2,36264,0,0.00,2,2,0,2,21826,49140,10492,36552,0,0,0,0,0.00,0.00,0.00,0.00
2014-07-03 19:50:00,2,44444,0,0.00,2,2,0,2,29816,50000,6346,46684,0,0,0,0,0.00,0.00,0.00,0.00
2014-07-03 20:00:00,2,47532,0,0.00,2,2,0,2,39193,50000,3837,49558,0,0,0,0,0.00,0.00,0.00,0.00
2014-07-03 20:10:00,2,46471,0,0.00,2,2,0,2,43168,50000,2270,46927,0,0,0,0,0.00,0.00,0.00,0.00
2014-07-03 20:20:00,2,47898,0,0.00,2,2,0,2,41287,50000,3441,50000,0,0,0,0,0.00,0.00,0.00,0.00
2014-07-03 20:30:00,2,49594,0,0.00,2,2,0,2,46306,50000,1101,50000,0,0,0,0,0.00,0.00,0.00,0.00
2014-07-03 20:40:00,2,48930,0,0.00,2,2,0,2,45330,50000,1435,49460,0,0,0,0,0.00,0.00,0.00,0.00
2014-07-03 20:50:00,2,35976,0,0.00,2,2,0,2,23369,50000,8210,34842,0,0,0,0,0.00,0.00,0.00,0.00
2014-07-03 21:00:00,2,23566,0,0.00,2,2,0,2,15180,29849,4798,23700,0,0,0,0,0.00,0.00,0.00,0.00
2014-07-03 21:10:00,2,20324,0,0.00,2,2,0,2,12708,32955,6955,17370,0,0,0,0,0.00,0.00,0.00,0.00
2014-07-03 21:20:00,2,31298,0,0.00,2,2,0,2,20277,48937,10876,28140,0,0,0,0,0.00,0.00,0.00,0.00
2014-07-03 21:30:00,2,36168,0,0.00,2,2,0,2,23129,47068,9128,38775,0,0,0,0,0.00,0.00,0.00,0.00
2014-07-03 21:40:00,2,39143,0,0.00,2,2,0,2,25956,50000,8835,42264,0,0,0,0,0.00,0.00,0.00,0.00
2014-07-03 21:50:00,2,29934,0,0.00,2,2,0,2,22491,36969,4625,29768,0,0,0,0,0.00,0.00,0.00,0.00
2014-07-03 22:00:00,2,33379,0,0.00,2,2,0,2,27486,42204,4623,31760,0,0,0,0,0.00,0.00,0.00,0.00
2014-07-03 22:10:00,2,19440,0,0.00,2,2,0,2,13507,23687,3429,20052,0,0,0,0,0.00,0.00,0.00,0.00
2014-07-03 22:20:00,2,21410,0,0.00,2,2,0,2,8923,47933,12623,15846,0,0,0,0,0.00,0.00,0.00,0.00
2014-07-03 22:30:00,2,19633,34,0.26,2,2,0,2,8658,50000,15992,10810,0,51,22,46,0.00,1.10,0.33,0.15
2014-07-03 22:40:00,2,11338,46,0.47,2,2,0,2,7139,24203,4813,9695,0,51,15,51,0.00,0.95,0.33,0.45
2014-07-03 22:50:00,2,17262,0,0.00,2,2,0,2,10211,29491,6938,13611,0,0,0,0,0.00,0.00,0.00,0.00
2014-07-03 23:00:00,2,34476,0,0.00,2,2,0,2,10349,47634,13892,42372,0,0,0,0,0.00,0.00,0.00,0.00
2014-07-03 23:10:00,2,34048,0,0.00,2,2,0,2,14256,49553,10500,37671,0,0,0,0,0.00,0.00,0.00,0.00
2014-07-03 23:20:00,2,24144,0,0.00,2,2,0,2,17051,28890,4633,25750,0,0,0,0,0.00,0.00,0.00,0.00
2014-07-03 23:30:00,2,28188,0,0.00,2,2,0,2,14640,44100,10892,26054,0,0,0,0,0.00,0.00,0.00,0.00
2014-07-03 23:40:00,2,16242,13,0.16,2,2,0,2,12641,24802,3524,16106,0,52,20,0,0.00,0.90,0.33,0.00
2014-07-03 23:50:00,2,13427,0,0.00,2,2,0,2,9771,17457,2705,13550,0,0,0,0,0.00,0.00,0.00,0.00
